Preview of NWS' New Version of Forecast
This preview is not operational and should not be used for support decisions.

Regional Weather Roundup (RWR)

Issued by National Weather Service (NWS)

                            
000
ASUS44 KJAN 190410
RWRMS 

MISSISSIPPI HOURLY WEATHER ROUNDUP
NATIONAL WEATHER SERVICE JACKSON MS
1100 PM CDT THU APR 18 2019

NOTE: "FAIR: INDICATES FEW OR NO CLOUDS BELOW 12,000 FEET WITH NO
SIGNIFICANT WEATHER AND/OR OBSTRUCTIONS TO VISIBILITY.

MSZ001>002-007>008-010>013-018>021-025>028-034>036-190500-
NORTHWEST MISSISSIPPI
  
CITY           SKY/WX    TMP DP  RH WIND       PRES   REMARKS
BATESVILLE       N/A     54  52  94 NW14G23   29.62R                  
CLARKSDALE     CLOUDY    54  54 100 NW17G33   29.68R                  
CLEVELAND      CLOUDY    53  51  91 NW24G31   29.71R                  
GREENWOOD      LGT RAIN  56  53  90 NW12G25   29.64R                  
GREENVILLE     CLOUDY    55  49  80 NW21G28   29.72R                  
OLIVE BRANCH   CLOUDY    48 N/A N/A N22G30    29.63R FOG              
OXFORD         DRIZZLE   57  57 100 W5        29.61S                  
TUNICA           N/A     50  46  87 N22G33    29.59S                  
WINONA         LGT RAIN  59  59 100 SW6       29.63R                  
$$

MSZ003>006-009-014>017-022>024-029>033-037>039-190500-
NORTHEAST MISSISSIPPI
  
CITY           SKY/WX    TMP DP  RH WIND       PRES   REMARKS
ABERDEEN       CLOUDY    61  61 100 S9G16     29.62R                  
COLUMBUS AFB   LGT RAIN  62  61  94 S13       29.60S                  
CORINTH        CLOUDY    59  57  94 SW6       29.58R                  
GOLDN TRIANGLE LGT RAIN  63  61  94 S12       29.63R                  
STARKVILLE     CLOUDY    61  59  94 SW5       29.64S                  
TUPELO         LGT RAIN  61  58  90 SW3       29.59S                  
$$

MSZ040-058-190500-
CENTRAL MISSISSIPPI
  
CITY           SKY/WX    TMP DP  RH WIND       PRES   REMARKS
JACKSON INTL   CLOUDY    62  59  90 SW5       29.68S                  
JACKSON HAWKNS CLOUDY    61  61 100 W7        29.67F                  
MADISON        CLOUDY    59  59 100 SW3       29.67S                  
MERIDIAN KEY   LGT RAIN  64  62  93 S5        29.65F                  
MERIDIAN NAS   LGT RAIN  64  63  96 S3        29.66R                  
RAYMOND        MOCLDY    61  61 100 W7        29.68S                  
VICKSBURG VKS  CLOUDY    57  57 100 NW16G30   29.73R FOG              
$$

MSZ059>079-190500-
SOUTH MISSISSIPPI
  
CITY           SKY/WX    TMP DP  RH WIND       PRES   REMARKS
HATTIESBURG    CLOUDY    64  62  93 SW5       29.68R                  
LAUREL         RAIN      63  63  99 SW6       29.67R FOG              
MCCOMB         CLOUDY    62  59  90 W5        29.70R                  
NATCHEZ        LGT RAIN  59  57  93 NW22G31   29.74R FOG              
PINE BELT      LGT RAIN  63  62  97 SW3       29.69R                  
$$

MSZ080>082-190500-
COASTAL MISSISSIPPI
  
CITY           SKY/WX    TMP DP  RH WIND       PRES   REMARKS
BILOXI         MOCLDY    72  69  88 W15G24    29.66S                  
PASCAGOULA     LGT RAIN  73  68  84 SW9G20    29.68R                  
GULFPORT       LGT RAIN  71  67  87 W17G26    29.66R                  
$$

LAZ007>009-015>016-023>026-190500-
NORTHEAST LOUISIANA
  
CITY           SKY/WX    TMP DP  RH WIND       PRES   REMARKS
BASTROP        CLOUDY    55  51  87 NW13G21   29.79R                  
TALLULAH/VBURG LGT RAIN  56  53  90 NW13G26   29.73R                  
VIDALIA        LGT RAIN  58  56  92 NW18G25   29.76R                  
$$